{"data":{"norad_id":41556,"intl_designator":"2016-033A","name":"ZIYUAN 3-02 (ZY 3-02)","alt_names":[],"object_type":"PAYLOAD","status":"ACTIVE","operator":null,"country":"PRC","launch_date":"2016-05-30","launch_site_code":"TAISC","launch_vehicle":null,"mission":null,"orbit_class":"UNKNOWN","rcs_meters":4.613,"size_class":null,"mass_kg":null,"dimensions":null,"purposes":["earth_obs"],"wikipedia_slug":null,"has_3d_model":false,"image_url":null,"decayed_at":null,"tle_current":{"epoch":"2026-09-20T04:02:23.814816Z","epoch_age_seconds":43048,"freshness":"FRESH","line1":"1 41556U 16033A   26263.16833119  .00003282  00000+0  14954-3 0  9995","line2":"2 41556  97.3759 337.0743 0012143 333.0400  27.0203 15.21303188572420","mean_motion":15.21303188,"eccentricity":0.0012143,"inclination_deg":97.3759,"raan_deg":337.0743,"arg_perigee_deg":333.04,"mean_anomaly_deg":27.0203,"bstar":0.00014954,"rev_number":57242,"period_min":94.655688054734,"perigee_km":493.55428284793,"apogee_km":510.26316188927,"semimajor_km":6880.0457223686,"source":"CELESTRAK","updated_at":"2026-09-20T09:00:33.966465Z"}}}